www.pogodaiklimat.ru

Погода и климат >> Архив погоды >> Швейцария >> Лугано


ПОГОДА в Лугано

  • Прогноз погоды в Лугано
  • Монитор погоды в Лугано

АРХИВ ПОГОДЫ в Лугано

Время (UTC), дата Ветер
(напр.,м/с)
 
Видим.   Явления Облачность Т
(С)
Тd
(С)
f
(%)
Тe
(С)
Тes
(С)
Комфортность P
(гПа)
Po
(гПа)
Тmin
(С)
Tmax
(С)
R
(мм)
R24
(мм)
S
(см)
01 20.03
{4}
н/о н/о +4.8 -2.8 58 1030.0 992.8
02 20.03 С 1
{3}
н/о н/о +4.3 -3.2 58 +5 +5 1030.2 992.9
03 20.03 С 1
{4}
15 км ясно +4.4 -3.1 58 +4 +4 1030.1 992.9
04 20.03 С 1
{3}
н/о н/о +3.6 -2.9 62 +3 +3 1030.7 993.3
05 20.03 С 1
{3}
н/о н/о +2.9 -3.0 65 +3 +3 1031.1 993.6
06 20.03 С 1
{4}
25 км ясно +2.9 -3.3 64 +2 +2 1031.8 994.3 +2.9
07 20.03 СВ 1
{2}
н/о н/о +4.4 -2.2 62 +3 +3 1032.1 994.8
08 20.03 В 1
{2}
н/о н/о +5.8 -0.8 63 +5 +5 1032.3 995.2
09 20.03 ЮВ 1
{3}
н/о н/о +6.3 -0.1 64 +6 +6 1032.4 995.3
10 20.03 ЮВ 1
{2}
н/о н/о +9.0 -2.4 45 +9 +9 1031.8 995.1
11 20.03 Ю 2
{3}
н/о н/о +10.1 -0.3 48 +10 +10 1031.3 994.8
12 20.03 ЮЗ 2
{4}
25 км ясно +11.0 -2.3 39 +10 +21 опасность
простуды
1030.6 994.2
13 20.03 Ю 2
{5}
н/о н/о +11.3 +1.1 49 +10 +10 1029.5 993.2
14 20.03 Ю 3
{5}
н/о н/о +11.6 +2.1 52 +10 +10 1028.7 992.5
15 20.03 Ю 4
{6}
н/о н/о +12.2 -0.8 41 +11 +11 1028.1 992.0
16 20.03 Ю 4
{7}
н/о н/о +11.9 +0.2 45 +10 +10 1028.0 991.8
17 20.03 Ю 3
{6}
н/о н/о +10.9 +1.4 52 +9 +9 1028.5 992.2
18 20.03 Ю 3
{7}
25 км ясно +10.3 +1.6 55 +9 +9 1029.4 993.0 +12.5
19 20.03 Ю 4
{6}
н/о н/о +10.9 -1.2 43 +9 +9 1030.3 993.9
20 20.03 С 2
{7}
н/о н/о +9.3 -1.8 46 +8 +8 1031.5 994.9
21 20.03 С 2
{7}
н/о н/о +7.9 -1.4 52 +6 +6 1032.5 995.6
22 20.03 С 1
{4}
н/о н/о +6.9 -1.6 55 +6 +6 1033.0 996.0
23 20.03 штиль 0
{2}
н/о н/о +6.2 -1.3 59 +6 +6 1033.6 996.5
00 21.03 С 2
{7}
н/о н/о +5.9 -1.4 59 +4 +4 1034.2 997.0
01 21.03 С 1
{4}
н/о н/о +5.4 -2.0 59 +6 +6 1034.5 997.2
02 21.03
{2}
н/о н/о +5.3 -2.2 58 1034.4 997.1
03 21.03 С 1
{4}
20 км ясно +4.2 -1.8 65 +3 +3 1034.4 997.0
04 21.03 С 1
{2}
н/о н/о +4.0 -2.2 64 +4 +4 1034.6 997.1
05 21.03 С 1
{2}
н/о н/о +3.5 -2.4 65 +4 +4 1034.8 997.3
06 21.03 С 1
{4}
25 км ясно +3.7 -2.4 64 +3 +3 1035.3 997.8 +3.3
07 21.03 СВ 1
{2}
н/о н/о +4.9 -1.7 62 +5 +5 1035.8 998.4
08 21.03 Ю 1
{2}
н/о н/о +5.3 -0.1 68 +6 +6 1035.8 998.5
09 21.03 ЮВ 1
{2}
н/о н/о +7.2 -0.2 59 +8 +8 1035.4 998.3
10 21.03 ЮВ 1
{2}
н/о н/о +8.7 0.0 54 +8 +8 1034.7 997.9
11 21.03 ЮВ 2
{2}
н/о н/о +10.4 +1.8 55 +10 +10 1033.7 997.1
12 21.03 ЮВ 2
{2}
25 км ясно +12.8 -2.9 33 +13 +25 опасность
простуды
1032.4 996.2
13 21.03 Ю 1
{2}
н/о н/о +13.1 -1.5 36 +14 +14 1031.3 995.2
14 21.03 Ю 2
{3}
н/о н/о +12.8 +1.3 45 +13 +13 1030.6 994.4
15 21.03 Ю 2
{4}
н/о н/о +13.8 -0.2 38 +14 +14 1029.7 993.7
17 21.03 Ю 2
{5}
н/о н/о +14.1 -0.9 36 +14 +14 1029.3 993.4
18 21.03 ЮВ 2
{6}
30 км 6/0
[]
+12.5 +0.3 43 +12 +12 1030.1 993.9 +14.9
19 21.03 Ю 2
{6}
н/о н/о +11.7 +0.1 45 +11 +11 1030.9 994.6
21 21.03 С 1
{6}
н/о н/о +8.9 -0.9 50 +9 +9 1032.2 995.5
22 21.03 СЗ 1
{2}
н/о н/о +7.9 -0.2 57 +9 +9 1032.8 995.9
23 21.03 В 1
{2}
н/о н/о +7.4 +2.6 72 +8 +8 1033.0 996.1
00 22.03 С 2
{6}
25 км ясно +6.8 -0.6 59 +5 +5 1033.1 996.1
01 22.03 СЗ 1
{2}
н/о н/о +6.3 -1.1 59 +7 +7 1032.9 995.8
02 22.03
{2}
н/о н/о +5.6 0.0 67 1032.8 995.6
03 22.03 С 1
{2}
25 км ясно +5.4 -0.7 65 +5 +5 1032.6 995.4
04 22.03 СЗ 1
{2}
н/о н/о +5.1 -0.8 66 +5 +5 1032.5 995.3
05 22.03 С 2
{2}
н/о н/о +4.5 -0.6 69 +3 +3 1032.6 995.3
06 22.03 С 2
{2}
25 км ясно +4.8 -1.1 66 +3 +3 1032.9 995.6 +4.5
07 22.03 СВ 1
{2}
н/о н/о +6.1 -0.4 63 +6 +6 1032.9 995.8
08 22.03 В 1
{2}
н/о н/о +7.7 +0.4 60 +8 +8 1032.4 995.5
09 22.03 Ю 1
{2}
н/о н/о +8.2 +2.8 69 +8 +8 1032.2 995.4
10 22.03 Ю 1
{2}
н/о н/о +8.8 +2.9 66 +8 +8 1031.8 995.1
11 22.03 ЮВ 1
{2}
н/о н/о +11.0 -0.4 45 +11 +11 1030.8 994.4
12 22.03 ЮВ 2
{3}
30 км ясно +15.7 +1.5 38 +16 +28 опасность
простуды
1029.2 993.5
13 22.03 Ю 4
{6}
н/о н/о +16.5 +2.3 38 +16 +16 1028.3 992.7
14 22.03 Ю 4
{6}
н/о н/о +16.2 +3.1 41 +16 +16 1027.4 991.8
15 22.03 Ю 4
{7}
н/о н/о +17.0 +1.8 36 +17 +17 1026.8 991.3
16 22.03 Ю 5
{7}
н/о н/о +16.4 +2.1 38 +16 +16 1026.3 990.8
17 22.03 Ю 3
{7}
н/о н/о +15.7 +1.4 38 +15 +15 1026.5 990.9
18 22.03 ЮВ 1
{7}
30 км 9/0
[]
+16.0 +0.4 35 +18 +18 1026.7 991.1 +17.7
19 22.03 С 3
{4}
н/о н/о +14.2 +1.0 41 +14 +14 1027.4 991.5
20 22.03 штиль 0
{4}
н/о н/о +12.8 +1.5 46 +13 +13 1027.9 991.8
21 22.03 С 1
{4}
н/о н/о +10.2 +3.9 65 +11 +11 1028.6 992.2
22 22.03 штиль 0
{1}
н/о н/о +9.9 +4.1 67 +9 +9 1028.8 992.3
23 22.03 С 1
{1}
н/о н/о +8.8 +3.9 71 +9 +9 1028.9 992.3
00 23.03 В 1
{4}
25 км ясно +8.4 +3.5 71 +9 +9 1029.0 992.3
01 23.03 СЗ 1
{1}
н/о н/о +7.8 +1.1 63 +8 +8 1028.7 992.0
02 23.03 С 1
{2}
н/о н/о +7.8 +1.1 63 +8 +8 1028.3 991.6
03 23.03 С 1
{2}
25 км ясно +7.1 +1.0 65 +6 +6 1028.1 991.3
04 23.03 С 1
{2}
н/о н/о +6.6 +1.0 67 +7 +7 1028.1 991.2
05 23.03 С 1
{2}
н/о н/о +6.7 +0.1 63 +6 +6 1028.0 991.1
06 23.03 С 1
{2}
25 км ясно +7.2 -0.2 59 +7 +7 1028.0 991.2 +6.4
07 23.03 С 1
{2}
н/о н/о +7.8 +0.6 60 +8 +8 1028.0 991.3
08 23.03 В 1
{1}
н/о н/о +8.9 +1.6 60 +10 +10 1028.0 991.4
09 23.03 ЮВ 1
{2}
н/о н/о +8.6 +4.9 78 +9 +9 1027.8 991.2
10 23.03 Ю 1
{2}
н/о н/о +10.3 +4.4 67 +11 +11 1027.2 990.8
11 23.03 Ю 1
{1}
н/о н/о +12.9 +0.5 43 +14 +14 1026.0 990.0
12 23.03 ЮВ 1
{2}
25 км ясно +18.1 -0.8 28 +19 +32 опасность
простуды
1024.5 989.2
13 23.03 Ю 3
{5}
н/о н/о +17.6 +2.7 37 +18 +18 1023.4 988.1
14 23.03 Ю 5
{8}
н/о н/о +19.7 +0.3 27 +20 +20 1022.5 987.5
15 23.03 Ю 5
{8}
н/о н/о +19.0 +2.2 33 +19 +19 1022.2 987.1
16 23.03 Ю 5
{8}
н/о н/о +18.8 +1.4 31 +19 +19 1022.1 987.0
17 23.03 Ю 3
{7}
н/о н/о +17.8 +1.1 32 +18 +18 1022.3 987.1
18 23.03 СВ 1
{8}
н/о н/о +18.9 -0.3 27 +20 +20 1022.7 987.6 +19.7
19 23.03 С 3
{4}
н/о н/о +15.8 +1.6 38 +15 +15 1023.9 988.4
20 23.03 С 1
{5}
н/о н/о +13.4 +3.2 50 +14 +14 1025.0 989.1
21 23.03 З 1
{5}
н/о н/о +12.5 +3.2 53 +14 +14 1025.3 989.3
22 23.03 З 1
{2}
н/о н/о +11.2 +3.8 60 +11 +11 1025.6 989.4
23 23.03 штиль 0
{1}
н/о н/о +10.5 +3.1 60 +10 +10 1025.6 989.3
00 24.03 В 1
{5}
15 км ясно +10.1 +3.6 64 +11 +11 1025.4 989.1
01 24.03
{2}
н/о н/о +9.7 +1.7 57 1025.3 988.9
02 24.03 С 1
{2}
н/о н/о +9.1 +2.1 62 +9 +9 1025.0 988.6
03 24.03 С 1
{2}
10 км ясно +9.3 +1.5 58 +9 +9 1024.8 988.4
04 24.03 С 1
{2}
н/о н/о +8.4 +1.5 62 +8 +8 1025.0 988.5
05 24.03 С 2
{2}
н/о н/о +8.1 +1.6 64 +7 +7 1025.2 988.6
06 24.03 С 1
{2}
25 км ясно +7.8 +1.8 66 +7 +8 1025.2 988.6 +7.7
07 24.03 С 1
{2}
н/о н/о +9.7 +1.2 55 +11 +11 1024.9 988.5
08 24.03 штиль 0
{1}
н/о н/о +8.9 +4.8 75 +8 +8 1024.8 988.3
09 24.03 Ю 1
{2}
н/о н/о +10.4 +4.4 66 +10 +10 1023.8 987.6
10 24.03 Ю 1
{2}
н/о н/о +11.0 +6.2 72 +11 +11 1023.2 987.1
11 24.03 Ю 1
{2}
н/о н/о +14.2 +1.6 42 +16 +16 1022.0 986.3
12 24.03 ЮВ 1
{2}
25 км ясно +17.8 +4.0 40 +19 +34 опасность
простуды
1020.5 985.3
13 24.03 Ю 3
{5}
н/о н/о +20.8 +2.3 29 +21 +21 комфорт 1018.7 984.0
14 24.03 Ю 3
{5}
н/о н/о +21.4 -0.6 23 +21 +21 комфорт 1017.7 983.1
15 24.03 Ю 4
{6}
н/о н/о +20.6 +1.3 28 +21 +21 комфорт 1017.0 982.3
16 24.03 Ю 3
{5}
н/о н/о +20.6 +0.2 26 +21 +21 комфорт 1016.3 981.6
17 24.03 Ю 3
{5}
н/о н/о +17.6 +2.3 36 +18 +18 1016.5 981.4
18 24.03 ЮВ 1
{6}
25 км ясно +18.5 0.0 29 +20 +20 1016.6 981.7 +21.7
19 24.03 С 2
{3}
н/о н/о +16.6 +1.3 36 +17 +17 1017.2 982.0
20 24.03 С 1
{4}
н/о н/о +14.5 +2.5 44 +15 +15 1017.7 982.2
21 24.03 Ю 1
{4}
н/о н/о +12.5 +3.9 56 +14 +14 1017.8 982.1
22 24.03 штиль 0
{2}
н/о н/о +12.0 +3.3 55 +12 +12 1017.8 982.0
23 24.03 СЗ 1
{2}
н/о н/о +10.8 +5.2 68 +12 +12 1017.6 981.6
00 25.03 С 1
{4}
25 км ясно +11.0 +1.4 52 +12 +12 1017.0 981.1
01 25.03 С 1
{2}
н/о н/о +10.3 +1.9 56 +11 +11 1016.6 980.6
02 25.03
{3}
н/о н/о +10.3 +1.3 54 1016.0 980.0
03 25.03 С 2
{3}
25 км ясно +9.4 +2.0 60 +9 +9 1015.5 979.4
04 25.03 В 1
{3}
н/о н/о +9.6 +1.1 55 +9 +9 1015.0 979.0
05 25.03 З 1
{2}
н/о н/о +9.2 +1.6 59 +9 +9 1014.8 978.7
06 25.03 СЗ 1
{3}
30 км ясно +9.4 +1.1 56 +9 +10 1014.6 978.6 +8.6
07 25.03 ЮВ 1
{4}
н/о н/о +11.6 +2.7 54 +12 +12 1014.0 978.3
08 25.03 С 4
{9}
н/о н/о +13.8 +4.3 53 +13 +13 1013.3 977.9
09 25.03 С 6
{10}
н/о н/о +19.5 -4.4 19 +19 +19 1012.3 977.6
10 25.03 С 6
{13}
н/о н/о +20.5 -5.2 17 +20 +20 1011.8 977.3
11 25.03 С 5
{15}
н/о н/о +21.3 -4.6 17 +20 +20 1011.1 976.7
12 25.03 СВ 8
{15}
н/о н/о +21.4 -5.8 16 +20 +20 1010.1 975.7
13 25.03 СВ 6
{16}
н/о н/о +21.1 -3.5 19 +20 +20 1009.3 974.9
14 25.03 СВ 9
{18}
н/о н/о +20.4 -5.6 17 +19 +19 1008.7 974.3
15 25.03 СВ 9
{22}
н/о н/о +19.3 -7.1 16 +18 +18 1008.4 973.8
16 25.03 С 11
{22}
н/о н/о +17.2 -8.7 16 +16 +16 1008.9 974.1
17 25.03 С 15
{26}
н/о н/о +14.7 -8.7 19 +12 +12 1010.5 975.3
18 25.03 СВ 16
{27}
30 км ясно +12.9 -9.6 20 +9 +9 1012.5 977.0 +21.6
19 25.03 СВ 13
{25}
н/о н/о +11.3 -8.2 25 +7 +7 1014.7 978.9
20 25.03 С 8
{22}
н/о н/о +10.0 -6.9 30 +7 +7 1016.8 980.8
21 25.03 С 9
{25}
н/о н/о +9.4 -6.7 31 +6 +6 1017.3 981.2
22 25.03 СВ 8
{17}
н/о н/о +8.5 -5.0 38 +5 +5 1017.7 981.4
23 25.03 С 5
{16}
н/о н/о +8.7 -6.7 33 +6 +6 1017.6 981.4
00 26.03 С 7
{25}
30 км ясно +9.2 -8.8 27 +6 +6 1018.7 982.5
01 26.03 С 5
{12}
н/о н/о +9.1 -8.8 27 +6 +6 1019.3 983.1
02 26.03 С 4
{12}
н/о н/о +9.3 -10.2 24 +7 +7 1019.3 983.1
03 26.03 С 6
{14}
30 км 1/0
[]
+9.1 -9.9 25 +6 +6 1019.7 983.5
04 26.03 С 4
{11}
н/о н/о +9.0 -10.0 25 +7 +7 1020.7 984.4
05 26.03 С 6
{12}
н/о н/о +8.9 -9.5 26 +6 +6 1021.1 984.8
06 26.03 Ю 8
{14}
н/о н/о +6.2 +1.8 73 +1 +1 1022.3 985.6 +7.2
07 26.03 Ю 6
{13}
н/о н/о +6.3 +2.0 74 +2 +2 1022.9 986.2
08 26.03 Ю 6
{11}
н/о н/о +6.4 +2.3 75 +2 +2 1023.3 986.6
09 26.03 ЮЗ 2
{13}
н/о н/о +8.8 -0.3 53 +7 +7 1022.8 986.4
10 26.03 С 9
{15}
н/о н/о +13.8 -11.3 16 +12 +12 1021.4 985.7
11 26.03
{17}
н/о н/о +14.5 -14.1 12 1020.8 985.2
12 26.03 С 7
{17}
н/о н/о +15.8 -10.2 16 +14 +14 1020.4 985.0
13 26.03 С 9
{16}
н/о н/о +16.3 -13.1 12 +15 +15 1019.7 984.4
14 26.03 С 7
{15}
н/о н/о +16.6 -12.5 12 +15 +15 1019.0 983.7
15 26.03 С 9
{16}
н/о н/о +16.3 -16.1 9 +15 +15 1019.0 983.7
16 26.03 С 9
{18}
н/о н/о +15.3 -13.6 12 +13 +13 1019.4 984.0
17 26.03 С 8
{17}
н/о н/о +14.7 -14.8 12 +13 +13 1019.9 984.4
18 26.03 СВ 9
{18}
н/о н/о +13.8 -15.3 12 +12 +12 1020.9 985.2 +17.0
21 26.03 Ю 2
{15}
н/о н/о +9.7 -4.5 36 +9 +9 1023.7 987.4
22 26.03 ЮВ 2
{6}
н/о н/о +8.9 -4.8 38 +8 +8 1024.7 988.2
23 26.03 ЮВ 4
{5}
н/о н/о +8.7 -5.4 36 +6 +6 1025.2 988.7

 

Местоположение метеостанции Лугано (Швейцария): широта 46.00 долгота 8.97 высота над уровнем моря 276 м.

В архиве по умолчанию представлена погода в Лугано за последнюю неделю. Архивные данные за месяц целиком и за предыдущие месяцы, начиная с января 2011 года, Вы можете получить, выбрав интересующий диапазон дат из раскрывающегося списка и нажав кнопку "Ввод!".


*Определитесь, кто Вы:
робот инопланетянин человек

Внимание! Время в таблицах - всемирное. Для получения местного времени необходимо прибавить поправку, которая равна 1 ч.

Смотрите также архив погоды в соседних городах и на ближайших метеорологических станциях:

Погода на Монте-Дженеросо (Швейцария) (9 км)
Погода в Стабио (Швейцария) (17 км)
Погода в Локарно-Магадино (Швейцария) (20 км)
Погода в Локарно-Монти (Швейцария) (24 км)
Погода на Циметте (Швейцария) (26 км)
Погода в Гроно (Швейцария) (31 км)
Погода в Севьо (Швейцария) (46 км)
Погода в Аэропорту Мальпенса (Италия) (46 км)
Погода на Матро (Швейцария) (47 км)
Погода в Аквароссе (Швейцария) (52 км)

Пояснения к столбцам:

Ветер - указаны скорость ветра в м/с - средняя за 10 мин, порывы в срок и между сроками (в фигурных скобках) и направление, откуда дует ветер: С - северный, СВ - северо-восточный, В - восточный, ЮВ - юго-восточный, Ю - южный, ЮЗ - юго-западный, З - западный, СЗ - северо-западный.
Видимость - горизонтальная дальность видимости в метрах или километрах. При видимости от 1 до 10 км при отсутствии осадков обычно наблюдается дымка, при ухудшении видимости до 1 км и менее - туман. В сухую погоду видимость может ухудшаться дымом, пылью или мглою.
Явления - указаны атмосферные явления, наблюдавшиеся в срок или в последний час перед сроком; фигурными скобками обозначены явления, наблюдавшиеся между сроками (за 1-3 часа до срока); квадратными скобками обозначены град или гололедные отложения с указанием их диаметра в мм.
Облачность - указаны через наклонную черту общая и нижняя облачность в баллах и высота нижней границы облаков в метрах; квадратными скобками обозначены формы облаков: Ci - перистые, Cs - перисто-слоистые, Cc - перисто-кучевые, Ac - высококучевые, As - высокослоистые, Sc - слоисто-кучевые, Ns - слоисто-дождевые, Cu - кучевые, Cb - кучево-дождевые. Подробнее классификацию облаков см. в Атласе облаков (PDF).
T - Температура воздуха - температура, измеренная на высоте 2 м над землей.
Td - Температура точки росы - температура, при понижении до которой содержащийся в воздухе водяной пар достигнет насыщения.
f - Относительная влажность воздуха - влажноcть воздуха, измеренная на высоте 2 м над землей.
Te - Эффективная температура - температура, которую ощущает одетый по сезону человек в тени. Характеристика душности погоды. При расчете учитывается влияние влажности воздуха и скорости ветра на теплоощущения человека.
Tes - Эффективная температура на солнце - температура, которую ощущает человек, с поправкой на солнечный нагрев. Характеристика знойности погоды. Зависит от высоты солнца над горизонтом, облачности и скорости ветра. Ночью, в пасмурную погоду, а также при ветре 12 м/с и более поправка равна нулю.
P - Атмосферное давление - приведенное к уровню моря атмосферное давление.
Po - Атмосферное давление - измеренное на уровне метеостанции атмосферное давление.
Tmin - Минимальная температура - минимум температуры воздуха на высоте 2 м над землей.
Tmax - Максимальная температура - максимум температуры воздуха на высоте 2 м над землей.
R - Количество осадков - Количество выпавших осадков за период времени, мм. При наведении курсора мыши на число - период времени, за который выпало указанное количество осадков.
R24 - Количество осадков - Количество выпавших осадков за 24 часа, мм.
S - Снежный покров - Высота снежного покрова, см. При наведении курсора мыши на число - состояние снежного покрова и степень покрытия местности в баллах.